Weather History for Topeka Forbes, KS

Change the Weather History Date:

Thursday, January 17, 2013

  Actual Average Record
Temperature  
Mean Temperature 36 °F -  
Max Temperature 50 °F 37 °F 64 °F (1973)
Min Temperature 23 °F 17 °F -10 °F (1978)
Degree Days  
Heating Degree Days 28    
Moisture  
Dew Point 27 °F    
Average Humidity 77    
Maximum Humidity 96    
Minimum Humidity 48    
Precipitation  
Precipitation 0.00 in - - ()
Sea Level Pressure  
Sea Level Pressure 30.42 in    
Wind  
Wind Speed 7 mph (NW)    
Max Wind Speed 10 mph    
Max Gust Speed -    
Visibility 10 miles    
Events      
Averages and records for this station are not official NWS values.
T = Trace of Precipitation, MM = Missing Value Source: NWS Daily Summary

Daily Weather History Graph

Daily Weather History Graph

Search for Another Location

Airport:

Trip Planner

Search our weather history database for the weather conditions in past years. The results will help you decide how hot, cold, wet, or windy it might be!

Date:

Astronomy

Jan. 17, 2013 Rise Set
Actual Time 7:38 AM CST 5:27 PM CST
Civil Twilight 7:09 AM CST 5:56 PM CST
Nautical Twilight 6:37 AM CST 6:28 PM CST
Astronomical Twilight 6:05 AM CST 7:00 PM CST
Moon 10:50 AM CST (1/17) No Moon Set
Length of Visible Light 10h 46m
Length of Day
9h 48m
Waxing Crescent, 38% of the Moon is Illuminated
Jan 17
Waxing Crescent
Jan 18
First Quarter
Jan 26
Full
Feb 3
Last Quarter
Feb 10
New

Hourly Weather History & Observations

Time (CST) Temp. Windchill Dew Point Humidity Pressure Visibility Wind Dir Wind Speed Gust Speed Precip Events Conditions
12:53 AM 34.0 °F 28.0 °F 28.0 °F 79% 30.27 in 10.0 mi NNW 6.9 mph - N/A   Clear
1:53 AM 30.0 °F 21.7 °F 26.1 °F 85% 30.29 in 10.0 mi NW 9.2 mph - N/A   Clear
2:53 AM 28.0 °F 18.6 °F 25.0 °F 88% 30.32 in 10.0 mi NW 10.4 mph - N/A   Clear
3:53 AM 28.9 °F 19.8 °F 26.1 °F 89% 30.35 in 10.0 mi NW 10.4 mph - N/A   Clear
4:53 AM 28.9 °F 21.1 °F 27.0 °F 92% 30.36 in 10.0 mi NNW 8.1 mph - N/A   Clear
5:53 AM 25.0 °F 17.1 °F 23.0 °F 92% 30.40 in 10.0 mi NW 6.9 mph - N/A   Clear
6:53 AM 23.0 °F 14.7 °F 21.9 °F 96% 30.43 in 10.0 mi NNW 6.9 mph - N/A   Clear
7:53 AM 24.1 °F 16.0 °F 21.9 °F 91% 30.44 in 10.0 mi NW 6.9 mph - N/A   Clear
8:53 AM 30.9 °F 27.5 °F 28.9 °F 92% 30.46 in 10.0 mi NNW 3.5 mph - N/A   Clear
9:53 AM 35.1 °F 29.3 °F 30.0 °F 82% 30.50 in 10.0 mi NNW 6.9 mph - N/A   Clear
10:53 AM 39.9 °F 35.8 °F 30.0 °F 68% 30.51 in 10.0 mi NNW 5.8 mph - N/A   Clear
11:53 AM 42.1 °F 39.2 °F 28.9 °F 60% 30.48 in 10.0 mi Variable 4.6 mph - N/A   Clear
12:53 PM 45.0 °F 41.8 °F 30.0 °F 56% 30.47 in 10.0 mi NNW 5.8 mph - N/A   Clear
1:53 PM 46.0 °F 44.8 °F 30.9 °F 56% 30.44 in 10.0 mi Variable 3.5 mph - N/A   Clear
2:53 PM 48.9 °F - 30.9 °F 50% 30.42 in 10.0 mi WNW 4.6 mph - N/A   Clear
3:53 PM 50.0 °F - 30.9 °F 48% 30.43 in 10.0 mi NW 4.6 mph - N/A   Clear
4:53 PM 48.9 °F - 30.9 °F 50% 30.44 in 10.0 mi Calm Calm - N/A   Clear
5:53 PM 41.0 °F - 30.0 °F 65% 30.44 in 10.0 mi Calm Calm - N/A   Clear
6:53 PM 34.0 °F 29.8 °F 27.0 °F 75% 30.45 in 10.0 mi SSE 4.6 mph - N/A   Clear
7:53 PM 34.0 °F 28.8 °F 28.0 °F 79% 30.44 in 10.0 mi South 5.8 mph - N/A   Clear
8:53 PM 30.9 °F 26.2 °F 25.0 °F 79% 30.43 in 10.0 mi South 4.6 mph - N/A   Clear
9:53 PM 28.0 °F 24.2 °F 26.1 °F 92% 30.43 in 10.0 mi SSE 3.5 mph - N/A   Clear
10:53 PM 26.1 °F 19.4 °F 23.0 °F 88% 30.41 in 10.0 mi SSE 5.8 mph - N/A   Clear
11:53 PM 30.0 °F 24.1 °F 26.1 °F 85% 30.40 in 10.0 mi South 5.8 mph - N/A   Clear